Location: Unspecified
(0.0000°N, 0.0000°E)
Time: 09:08:58
(UTC+00:00)

ATLAS 5 CENTAUR DEB - Pass Details

Date: 19 February 2026
Orbit: 7342 x 34659 km, 20.8° (Epoch: 6 March)

Event Time Altitude Azimuth Distance (km) Brightness Sun altitude
Rises 17:28:22 0° 252° (WSW) 12,497 ? 11.1°
Reaches altitude 10° 17:35:45 10° 247° (WSW) 11,921 ? 9.3°
Enters shadow 23:03:36 75° 43° (NE) 34,670 ? -69.4°
Exits shadow 00:40:14 73° 8° (N) 33,879 ? -77.2°
Drops below altitude 10° 05:16:03 10° 83° (E) 12,900 ? -14.2°
Sets 05:24:11 0° 88° (E) 13,184 ? -12.2°
